N6ZQK Weather Reports


Display with metric or nautical units.
time (UTC)temp
F
wind
direction
speed
MPH
gust
MPH
rain 1hr
in
rain 24hr
in
rain mn
in
humidity
%
barometer
mb
20260505024803 45 0 0.0 0.0 0.09 0.77 0.77 94 1013.5
20260505024203 45 142 0.0 1.0 0.09 0.76 0.76 94 1013.7
20260505023603 45 142 0.0 1.0 0.10 0.76 0.76 94 1014.0
20260505023003 45 142 0.0 2.0 0.10 0.75 0.75 94 1014.0
20260505022424 45 148 1.0 5.0 0.10 0.74 0.74 94 1013.8
20260505021803 45 150 1.0 5.0 0.10 0.72 0.72 94 1013.3
20260505021203 45 152 2.0 7.0 0.10 0.71 0.71 94 1013.2
20260505020603 45 140 4.0 11.0 0.12 0.71 0.71 94 1012.9
20260505020003 45 134 4.0 11.0 0.10 0.69 0.69 94 1012.9
20260505015403 45 133 3.0 8.0 0.12 0.69 0.69 94 1013.0
20260505014803 46 147 3.0 9.0 0.12 0.68 0.68 94 1012.8
20260505014203 46 162 3.0 9.0 0.12 0.67 0.67 94 1012.7
20260505013603 46 171 1.0 6.0 0.13 0.66 0.66 94 1012.7
20260505013003 46 171 0.0 2.0 0.14 0.64 0.64 94 1013.0
20260505012403 46 171 0.0 1.0 0.14 0.63 0.63 94 1013.2
20260505011803 46 171 0.0 1.0 0.14 0.62 0.62 94 1013.3
20260505011203 46 171 0.0 4.0 0.15 0.61 0.61 94 1013.2
20260505010603 46 171 1.0 5.0 0.15 0.60 0.60 94 1013.0
20260505010003 46 171 1.0 5.0 0.15 0.59 0.59 94 1013.1
20260505005403 46 173 2.0 8.0 0.14 0.57 0.57 94 1013.1
20260505004824 46 166 3.0 8.0 0.15 0.56 0.56 94 1012.9
20260505004203 46 166 3.0 8.0 0.15 0.55 0.55 94 1013.1
20260505003603 46 180 4.0 8.0 0.13 0.53 0.53 94 1013.2
20260505003003 46 177 4.0 9.0 0.10 0.51 0.51 94 1013.1
20260505002403 46 169 4.0 11.0 0.10 0.49 0.49 94 1013.2
20260505001803 46 171 2.0 9.0 0.09 0.48 0.48 94 1013.3
20260505001203 46 182 1.0 6.0 0.07 0.46 0.46 94 1013.5
20260505000603 46 177 2.0 10.0 0.08 0.45 0.45 94 1013.3
20260505000003 46 167 4.0 10.0 0.09 0.44 0.44 94 1013.0
20260504235403 46 165 3.0 7.0 0.12 0.44 0.44 94 1013.0
20260504234803 46 171 4.0 8.0 0.12 0.41 0.41 94 1013.1
20260504234203 46 164 5.0 8.0 0.12 0.40 0.40 94 1013.1
20260504233603 46 163 5.0 10.0 0.12 0.40 0.40 94 1013.3
20260504233003 47 169 5.0 9.0 0.12 0.40 0.40 94 1013.2
20260504232403 46 172 5.0 9.0 0.12 0.39 0.39 94 1013.0
20260504231803 46 175 4.0 10.0 0.13 0.39 0.39 94 1013.1
20260504231203 46 182 5.0 10.0 0.14 0.39 0.39 94 1013.0
20260504230624 46 196 3.0 9.0 0.14 0.37 0.37 94 1013.0
20260504230003 46 209 2.0 4.0 0.13 0.34 0.35 93 1013.0
20260504225403 46 209 2.0 7.0 0.12 0.32 0.32 93 1013.2
20260504224824 47 169 2.0 7.0 0.09 0.30 0.30 93 1013.0
20260504224203 47 169 2.0 7.0 0.09 0.29 0.29 93 1013.8
20260504223603 47 198 2.0 6.0 0.09 0.29 0.29 93 1013.5
20260504223003 47 219 3.0 9.0 0.09 0.29 0.29 93 1013.1
20260504222403 47 238 2.0 9.0 0.09 0.28 0.28 93 1013.1
20260504221803 47 237 1.0 5.0 0.09 0.26 0.26 93 1013.0
20260504221203 47 232 1.0 6.0 0.09 0.25 0.25 93 1013.1
20260504220603 47 235 2.0 6.0 0.09 0.23 0.23 93 1013.1
20260504220003 47 233 1.0 5.0 0.09 0.22 0.22 93 1013.2
20260504215403 47 230 1.0 4.0 0.09 0.21 0.21 93 1013.3
20260504214803 47 242 0.0 3.0 0.09 0.21 0.21 93 1013.2
20260504214203 47 242 1.0 4.0 0.09 0.20 0.20 93 1013.3
20260504213603 47 240 2.0 4.0 0.09 0.20 0.20 93 1013.2
20260504213003 47 236 1.0 4.0 0.09 0.20 0.20 92 1013.2
20260504212403 48 234 2.0 5.0 0.09 0.18 0.18 92 1013.2
20260504211824 48 234 1.0 4.0 0.08 0.17 0.17 92 1013.2
20260504211203 48 234 0.0 2.0 0.08 0.16 0.16 92 1013.3
20260504210603 48 234 0.0 2.0 0.07 0.14 0.14 92 1013.4
20260504210024 48 234 0.0 1.0 0.07 0.13 0.13 92 1013.5
20260504205403 48 0 0.0 0.0 0.08 0.12 0.12 92 1013.5
20260504204803 48 234 0.0 2.0 0.10 0.12 0.12 92 1013.3
20260504204203 48 234 0.0 2.0 0.09 0.10 0.10 92 1013.3
20260504203603 48 234 0.0 2.0 0.10 0.10 0.10 92 1013.3
20260504203003 48 234 0.0 3.0 0.10 0.10 0.10 91 1013.2
20260504202403 48 234 1.0 3.0 0.09 0.09 0.09 91 1013.2
20260504201803 48 234 0.0 3.0 0.09 0.09 0.09 91 1013.2
20260504201203 48 234 1.0 4.0 0.08 0.08 0.08 91 1013.2
20260504200603 48 234 0.0 3.0 0.07 0.07 0.07 91 1013.2
20260504200003 48 234 0.0 2.0 0.06 0.06 0.06 90 1013.2
20260504195403 49 234 1.0 4.0 0.03 0.03 0.03 89 1013.3
20260504194803 49 234 1.0 4.0 0.01 0.01 0.01 89 1013.3
20260504194224 49 234 1.0 4.0 0.01 0.01 0.01 89 1013.4
20260504193603 49 237 1.0 4.0 0.00 0.00 0.00 92 1013.4
20260504193003 49 241 1.0 5.0 0.00 0.00 0.00 88 1013.3
20260504192424 49 253 1.0 5.0 0.00 0.00 0.00 88 1013.2
20260504191803 50 266 2.0 7.0 0.00 0.00 0.00 87 1013.3
20260504191203 50 265 1.0 7.0 0.00 0.00 0.00 87 1013.3
20260504190624 50 283 1.0 5.0 0.00 0.00 0.00 86 1013.3
20260504190003 50 310 1.0 5.0 0.00 0.00 0.00 84 1013.4
20260504185403 50 311 1.0 5.0 0.00 0.00 0.00 83 1013.4
20260504184803 50 312 1.0 5.0 0.00 0.00 0.00 82 1013.3
20260504184203 50 316 1.0 6.0 0.00 0.00 0.00 81 1013.3
20260504183603 50 313 2.0 6.0 0.00 0.00 0.00 81 1013.2
20260504183024 50 315 1.0 5.0 0.00 0.00 0.00 82 1013.1
20260504182403 50 331 1.0 5.0 0.00 0.00 0.00 81 1013.1
20260504181803 50 325 1.0 6.0 0.00 0.00 0.00 80 1013.1
20260504181224 50 314 2.0 6.0 0.00 0.00 0.00 79 1013.2
20260504180624 51 312 1.0 5.0 0.00 0.00 0.00 79 1013.1
20260504180003 51 323 1.0 6.0 0.00 0.00 0.00 79 1013.0
20260504175403 50 300 1.0 6.0 0.00 0.00 0.00 79 1013.0
20260504174803 50 281 1.0 5.0 0.00 0.00 0.00 79 1012.9
20260504174203 50 176 0.0 2.0 0.00 0.00 0.00 79 1012.9
20260504173603 50 176 0.0 2.0 0.00 0.00 0.00 80 1012.9
20260504173024 49 176 0.0 2.0 0.00 0.00 0.00 80 1013.0
20260504172403 49 176 0.0 2.0 0.00 0.00 0.00 80 1013.0
20260504171803 49 0 0.0 0.0 0.00 0.00 0.00 80 1012.9
20260504171224 49 176 0.0 2.0 0.00 0.00 0.00 81 1013.0
20260504170603 49 176 0.0 2.0 0.00 0.00 0.00 81 1012.9
20260504150603 48 152 0.0 4.0 0.00 0.00 0.00 86 1012.3
20260504141203 47 152 0.0 2.0 0.00 0.00 0.00 88 1012.2
20260504140624 47 152 0.0 2.0 0.00 0.00 0.00 88 1012.2
20260504130603 47 152 0.0 4.0 0.00 0.00 0.00 88 1011.7
20260504110603 48 169 1.0 5.0 0.00 0.00 0.00 86 1011.4
20260504100603 48 169 0.0 2.0 0.00 0.00 0.00 88 1011.1
20260504081803 49 229 0.0 2.0 0.00 0.00 0.00 89 1011.4
20260504081203 49 229 0.0 2.0 0.00 0.00 0.00 90 1011.4
20260504080603 49 229 0.0 2.0 0.00 0.00 0.00 90 1011.4
20260504050624 52 227 1.0 3.0 0.00 0.00 0.00 85 1011.0
20260504050003 52 227 0.0 3.0 0.00 0.00 0.00 86 1011.0
20260504045403 52 227 0.0 3.0 0.00 0.00 0.00 86 1011.0
20260504044824 52 227 1.0 4.0 0.00 0.00 0.00 86 1010.8
20260504044203 52 221 2.0 8.0 0.00 0.00 0.00 86 1010.7
20260504043624 52 194 1.0 8.0 0.00 0.00 0.00 87 1010.7
20260504043024 52 166 0.0 5.0 0.00 0.00 0.00 87 1010.6
20260504042403 52 165 0.0 4.0 0.00 0.00 0.00 86 1010.5
20260504041803 52 165 0.0 2.0 0.00 0.00 0.00 87 1010.6
20260504041203 52 0 0.0 0.0 0.00 0.00 0.00 87 1010.5
20260504040603 52 0 0.0 0.0 0.00 0.00 0.00 87 1010.5
20260504040024 52 0 0.0 0.0 0.00 0.00 0.00 87 1010.5
20260504035403 52 165 0.0 2.0 0.00 0.00 0.00 87 1010.5
20260504034804 52 165 0.0 1.0 0.00 0.00 0.00 87 1010.4
20260504034203 52 165 0.0 1.0 0.00 0.00 0.00 87 1010.3
20260504033603 52 165 0.0 2.0 0.00 0.00 0.00 87 1010.2
20260504033003 52 165 1.0 5.0 0.00 0.00 0.00 87 1010.2
20260504032403 52 166 1.0 4.0 0.00 0.00 0.00 87 1010.0
20260504031803 52 175 1.0 5.0 0.00 0.00 0.00 87 1009.9
20260504031203 52 227 0.0 2.0 0.00 0.00 0.00 87 1009.9
20260504030603 52 229 0.0 2.0 0.00 0.00 0.00 86 1009.9
20260504030003 52 229 0.0 2.0 0.00 0.00 0.00 86 1009.9
20260504025424 52 229 0.0 2.0 0.00 0.00 0.00 86 1009.8